Wind_Speed
13 12 10 9 9 9 8 7 6 6 6 6 6 6 6 5 4 3 3 4 4 4 4 4 4 4 4 4 4 5 5 5 5 6 6 6 7 7 7 7 6 5 5 2 2 2 3 5 4 2 2 2 2 2 2 2 2 2 2 2 2 2 2 3 4 4 5 5 5
14 13 11 10 10 10 9 8 7 6 6 6 6 6 6 5 5 4 3 3 3 3 4 4 4 5 5 6 5 5 5 5 5 6 6 6 7 7 7 7 6 6 5 2 2 2 3 5 5 3 2 1 1 1 2 2 2 2 2 2 2 2 2 3 4 4 4 5 5
15 14 12 12 11 10 9 8 8 7 6 6 6 6 6 6 6 5 5 4 4 4 3 4 5 5 6 7 7 7 6 6 6 7 7 7 7 7 7 7 6 6 5 2 2 2 3 5 5 2 2 1 1 1 1 2 2 2 2 2 2 2 2 3 4 4 4 5 5
16 15 14 13 12 10 9 9 8 7 7 6 6 6 6 7 7 7 7 7 6 6 5 4 4 5 6 7 7 7 7 7 7 7 8 7 7 7 7 7 6 5 4 2 2 3 4 4 4 2 1 2 2 2 1 1 1 1 1 2 2 2 2 3 3 4 4 5 5
18 16 15 14 13 11 10 10 9 8 8 8 7 7 7 7 7 7 7 8 8 7 6 5 5 5 6 6 6 6 7 8 8 8 8 8 7 7 7 7 6 6 4 2 2 4 4 4 4 3 2 3 3 2 1 0 1 1 1 1 2 2 2 3 3 4 5 6 6
19 17 16 14 13 12 12 11 11 10 10 10 10 9 9 8 7 6 6 6 7 7 6 6 6 6 6 5 5 6 6 7 8 8 8 8 7 7 7 7 7 6 5 3 2 3 4 5 5 3 3 2 2 1 0 0 0 0 1 1 2 2 2 3 4 4 5 6 6
19 18 17 15 14 13 13 13 13 13 12 12 11 11 10 9 7 6 6 6 6 6 6 6 6 6 6 6 6 6 6 6 7 7 8 8 8 7 7 7 8 7 6 4 2 3 3 6 4 2 2 1 1 1 1 0 0 1 1 2 2 2 3 3 4 4 5 6 6
19 18 17 16 14 13 13 14 14 14 13 12 11 10 9 8 7 7 6 6 6 7 6 6 6 6 6 6 6 7 7 8 7 7 8 9 8 8 7 7 8 7 6 4 3 3 4 5 4 2 2 1 1 1 1 1 1 1 1 2 2 3 3 4 4 4 5 6 6
19 19 18 17 14 13 12 13 13 13 12 11 10 9 9 8 8 7 7 7 7 7 7 7 6 6 6 7 7 7 7 7 8 8 8 9 9 8 8 8 8 7 7 5 4 4 4 5 4 2 2 2 3 2 2 2 1 1 1 2 2 3 3 3 4 4 5 6 6
19 19 18 17 15 13 12 12 12 12 12 11 11 10 9 9 8 8 7 7 7 7 7 7 7 7 8 8 8 8 8 8 9 9 9 10 9 9 8 8 8 8 7 6 4 4 5 6 5 3 2 3 3 3 3 2 1 0 1 2 3 3 3 3 4 5 5 6 6
20 18 18 17 16 15 13 12 12 11 11 11 11 11 10 9 8 8 7 7 8 8 8 8 9 9 9 10 9 9 9 10 10 9 9 10 9 9 9 9 9 9 8 6 4 4 5 6 5 3 3 3 4 4 3 2 1 0 2 2 3 3 3 3 4 5 5 6 6
20 19 18 17 16 16 14 13 13 12 12 12 11 11 11 9 8 7 7 8 8 8 9 9 10 10 11 11 11 11 11 10 9 8 9 9 9 9 10 10 10 10 9 7 4 4 6 7 6 4 3 3 4 4 3 2 1 1 2 2 2 2 3 3 4 5 5 6 6
21 19 18 17 16 16 15 14 13 13 12 12 11 11 11 9 7 7 7 8 8 8 9 9 10 11 12 12 12 11 10 9 8 8 9 9 9 10 10 9 10 11 10 7 6 5 6 7 6 4 4 4 4 4 3 2 1 2 2 2 2 2 3 3 4 5 5 6 6
21 20 18 17 16 15 15 14 13 13 12 11 10 10 10 10 8 7 7 7 8 8 9 9 10 11 11 11 9 8 6 6 7 8 9 9 9 9 9 9 9 10 10 8 7 6 7 8 7 5 4 5 5 4 4 3 3 3 3 3 2 2 3 3 4 5 5 6 6
22 20 19 17 16 15 14 14 14 13 12 11 10 9 9 10 9 8 7 8 8 9 9 9 10 10 9 7 6 5 5 6 7 8 8 8 8 8 8 8 8 9 9 8 8 7 8 9 8 5 4 5 5 5 5 4 4 4 4 3 3 3 3 3 4 4 5 6 6
22 21 20 18 17 15 14 14 14 14 13 12 11 10 9 9 9 9 9 9 10 10 10 9 9 8 7 5 5 5 6 6 7 7 8 8 8 8 8 8 8 9 9 8 7 7 8 9 8 6 4 5 5 5 5 5 5 4 4 3 3 3 3 3 3 4 5 6 6
23 22 21 20 18 16 15 14 14 14 14 13 12 11 10 9 9 10 10 11 11 10 10 9 8 7 6 6 6 6 6 7 7 8 8 8 8 8 8 8 8 9 9 9 8 8 9 9 8 6 5 6 6 6 6 6 5 4 3 3 3 3 3 3 3 4 5 6 6
23 23 22 21 20 18 16 15 14 14 14 14 13 12 11 10 10 11 11 12 11 10 9 9 9 8 7 7 6 6 6 7 8 8 9 8 8 8 9 9 8 9 9 9 9 9 9 8 9 7 6 7 7 6 6 6 6 5 3 3 2 3 3 3 3 4 5 5 6
24 23 23 23 22 20 18 16 15 15 14 14 13 13 12 11 11 11 12 12 11 10 9 9 9 9 8 7 7 7 7 8 8 9 9 9 9 9 9 9 8 8 9 10 10 10 9 8 9 8 6 6 7 7 6 6 6 5 4 3 2 3 3 3 3 4 4 5 6
24 24 24 24 23 22 20 18 16 15 15 14 13 13 12 12 12 12 12 12 11 10 10 10 9 9 8 8 7 8 8 9 9 9 9 10 10 10 10 9 8 9 10 10 11 10 9 8 9 8 7 6 7 8 7 6 6 5 4 4 3 3 3 3 3 3 4 5 6
24 24 24 24 24 23 21 19 17 16 15 14 13 13 12 12 12 12 12 12 11 10 10 11 10 10 9 8 8 8 9 9 9 9 10 10 11 11 10 9 9 10 10 11 11 10 9 8 8 8 7 5 7 8 7 6 6 6 5 4 4 4 3 3 2 3 3 4 5
24 25 25 24 24 23 22 20 18 16 15 15 14 13 12 12 12 13 13 13 12 11 10 11 11 10 10 9 9 9 9 9 9 10 10 10 11 11 11 10 10 11 11 11 11 10 9 9 9 9 8 6 6 6 7 7 7 7 6 6 5 5 4 4 3 3 3 4 5
24 25 25 24 24 23 22 20 19 17 16 15 14 13 13 12 12 13 14 14 13 11 11 11 11 11 10 9 9 9 9 9 9 10 10 10 11 11 11 11 11 11 11 11 11 11 10 10 9 9 9 8 6 6 7 7 7 7 7 6 6 5 5 4 4 3 3 4 4
24 24 25 24 23 23 22 21 20 18 16 15 14 13 13 12 12 13 14 14 14 12 11 11 11 11 10 10 10 10 10 9 9 9 10 10 10 10 10 10 10 11 11 11 11 12 11 11 10 9 10 9 8 7 7 7 7 7 6 6 6 6 5 4 4 4 4 4 4
23 24 24 24 23 22 22 21 20 19 17 16 15 14 13 12 11 12 13 14 14 13 12 12 11 11 10 10 10 10 10 9 9 9 10 10 10 10 10 10 10 10 10 11 11 11 11 11 10 9 9 9 8 8 8 7 7 6 6 6 6 6 5 4 4 4 4 4 4
23 23 23 23 23 22 21 20 20 20 19 17 15 14 13 12 11 12 13 13 13 13 12 12 12 11 11 10 10 11 10 10 10 10 10 10 10 10 10 10 10 10 10 10 11 11 11 11 11 9 8 8 8 8 8 8 7 7 6 6 6 6 6 5 5 4 4 4 4
22 22 22 23 22 22 21 20 20 20 20 19 17 15 13 12 11 12 12 13 13 13 12 12 12 12 12 11 11 11 11 10 10 10 10 10 10 11 10 10 10 10 10 10 10 11 11 12 11 10 8 7 8 8 9 8 8 8 7 7 7 7 6 6 5 5 5 5 4
21 21 22 22 22 21 21 21 20 20 20 20 18 16 14 12 12 12 12 13 13 13 12 12 12 12 12 12 12 11 11 11 11 11 11 11 11 11 11 10 10 9 9 9 10 11 12 12 12 11 9 8 8 9 9 9 9 8 8 7 7 7 7 6 6 5 5 5 5
21 21 21 21 21 21 21 21 21 20 20 20 19 17 15 13 12 12 12 13 13 13 13 13 13 13 13 13 13 12 11 11 11 11 11 11 11 11 11 10 9 9 9 9 10 11 12 13 12 12 10 9 9 9 9 9 9 8 8 7 8 8 7 6 6 6 6 5 5
21 21 21 21 21 21 21 21 21 21 21 20 19 18 16 14 12 12 12 13 14 14 14 13 13 13 14 14 13 12 12 12 12 11 12 12 12 11 11 10 10 9 9 9 10 11 12 13 13 12 11 9 9 9 10 9 9 8 7 7 8 8 7 6 6 6 6 6 6
21 21 21 21 21 21 21 21 21 21 21 21 20 19 18 15 13 13 13 13 14 14 14 14 14 14 14 14 13 12 12 12 12 12 12 12 12 11 11 10 10 9 9 9 10 11 11 12 13 13 12 10 9 9 10 9 8 8 8 7 8 8 7 6 7 6 6 7 7
21 21 21 21 21 21 21 21 21 21 21 20 20 20 18 16 14 13 13 13 14 14 15 15 15 15 14 13 12 12 12 12 12 12 12 12 12 12 11 10 10 9 9 10 10 11 11 12 13 13 13 11 10 9 9 9 8 8 8 8 8 8 7 7 7 6 6 6 7
22 22 22 22 21 21 21 21 21 21 21 20 20 20 19 17 14 13 13 13 14 14 15 16 16 16 15 14 13 12 12 12 12 12 12 12 12 12 11 10 10 10 10 10 10 11 11 12 13 14 13 13 11 9 8 8 8 8 8 8 8 8 7 7 7 6 6 6 6
22 23 22 22 22 21 21 21 21 21 20 20 20 19 19 17 15 13 13 13 14 15 16 17 17 16 15 15 14 13 13 12 12 12 12 12 12 12 11 10 10 10 10 10 11 11 12 13 13 14 14 13 11 9 8 8 8 8 8 8 8 8 8 7 7 7 6 6 6
23 23 23 23 22 22 21 21 21 21 20 20 19 19 19 18 16 14 13 13 14 14 15 17 17 16 16 15 15 14 13 13 12 12 12 12 12 12 11 11 10 10 10 10 11 12 12 13 13 14 14 14 12 10 9 8 8 9 9 9 8 8 8 8 7 7 7 7 7
24 24 23 23 23 22 21 21 21 20 20 19 19 19 19 18 17 14 13 13 13 14 15 16 17 16 16 16 15 15 14 13 13 13 12 12 13 13 12 11 10 10 10 10 11 12 13 13 14 14 14 14 13 11 9 9 9 9 9 9 9 8 8 7 7 7 7 8 7
24 24 24 24 23 22 21 21 20 20 20 19 19 19 19 19 17 15 13 13 14 15 16 16 17 17 17 16 16 15 15 14 13 13 13 13 13 13 12 11 11 10 11 11 12 12 13 13 14 15 15 14 13 12 10 10 10 10 10 10 9 9 8 7 7 7 7 8 8
25 24 24 24 23 22 22 21 20 20 20 20 19 19 19 19 18 16 14 13 14 15 16 16 17 18 17 17 16 15 15 14 14 14 13 13 13 13 13 11 11 11 11 11 12 13 13 14 15 15 15 15 14 13 11 11 11 11 11 10 10 9 8 8 7 7 7 8 8
25 25 24 24 23 23 22 21 21 20 20 20 19 19 19 18 18 16 14 13 14 15 16 17 17 18 17 17 16 15 15 14 14 14 14 13 14 14 13 12 11 11 12 12 13 13 14 15 15 15 15 15 15 13 12 12 12 12 12 11 10 10 9 8 8 8 8 8 9
26 25 25 24 23 23 22 22 21 20 20 20 19 19 18 18 18 17 15 14 14 15 16 17 17 17 17 16 16 16 15 15 14 14 13 13 13 13 13 12 12 12 12 13 13 14 15 15 15 15 15 15 14 13 13 13 13 13 12 12 11 10 9 9 8 9 9 10 9
26 25 25 24 23 23 22 22 22 21 21 20 20 19 19 18 18 17 16 14 14 15 16 16 17 17 17 16 16 16 16 15 15 14 13 13 13 13 13 12 12 12 12 13 14 15 15 15 15 15 15 15 14 13 13 13 13 13 13 12 12 11 10 9 8 8 9 10 9
Wind_Direction
335 331 326 321 316 312 308 305 300 293 287 283 279 278 276 276 279 287 295 299 300 292 281 270 262 261 260 256 254 254 255 255 251 247 246 249 253 255 253 251 245 223 207 227 291 276 233 213 217 247 283 268 279 300 317 331 355 8 7 5 10 10 15 27 24 20 16 10 5
337 332 325 318 314 313 313 312 310 306 302 298 292 285 277 269 265 267 275 286 287 282 276 271 263 255 250 246 249 253 259 264 261 255 251 252 255 256 257 254 241 217 204 224 267 252 220 212 230 267 321 334 303 313 334 344 6 12 4 2 358 1 19 30 26 20 13 9 5
339 335 329 323 318 314 312 310 308 306 305 302 297 289 280 269 259 254 254 258 258 256 256 261 261 255 247 242 243 246 251 258 260 255 251 251 254 256 256 251 232 211 201 218 249 241 221 215 227 255 322 334 293 294 339 1 15 22 18 11 353 3 28 36 24 19 15 12 11
340 336 332 328 323 316 309 305 302 300 299 297 290 284 280 275 266 257 252 250 248 244 241 246 256 256 251 246 244 243 244 249 253 251 248 248 250 253 252 244 221 202 196 216 247 244 227 210 209 225 274 291 270 257 279 7 21 39 46 26 6 21 44 45 34 28 23 19 15
340 336 331 327 323 317 309 301 296 293 289 285 281 278 278 280 280 274 267 261 257 251 246 245 253 257 256 253 249 246 244 243 247 247 244 244 247 250 247 236 214 198 191 203 241 244 227 195 188 207 255 270 266 252 235 10 17 53 77 32 1 18 47 53 46 39 32 26 21
340 335 330 324 320 315 308 299 292 287 283 279 277 276 277 279 281 281 278 275 271 265 257 251 253 255 256 255 251 247 245 245 246 245 242 239 243 246 243 231 213 200 192 193 231 246 224 189 193 218 253 254 270 270 246 14 334 50 81 36 355 4 48 57 55 47 39 31 25
339 336 332 326 320 315 309 301 295 290 286 282 280 279 279 279 276 272 271 273 279 277 269 258 255 254 253 250 247 243 241 242 246 245 241 237 239 243 241 230 215 202 195 193 219 249 226 195 206 241 270 223 253 280 294 282 246 136 90 48 10 18 46 59 56 49 42 35 29
339 337 334 330 325 319 313 307 303 300 296 289 283 281 281 281 278 273 268 268 270 270 266 259 253 250 248 245 243 241 238 237 240 240 237 232 235 239 240 232 217 205 197 198 216 241 230 202 211 248 276 217 223 244 262 252 240 170 108 69 36 34 42 50 50 47 42 37 33
338 337 336 333 329 322 316 312 309 307 305 300 291 283 279 278 277 274 271 266 263 260 256 252 248 245 244 243 242 241 240 238 239 239 233 224 228 236 240 232 219 206 198 198 214 232 227 207 209 237 259 217 220 231 245 254 257 202 120 90 60 43 39 43 48 47 45 40 36
336 336 336 334 331 324 316 311 308 307 305 303 298 290 281 274 271 270 268 263 257 251 246 243 242 241 240 240 241 242 243 243 241 236 225 216 220 230 237 231 220 207 198 195 205 218 216 204 211 238 256 210 210 220 232 245 255 175 116 99 74 58 47 45 50 51 47 43 38
334 334 334 333 331 325 317 308 302 299 298 298 297 293 286 276 269 267 265 260 254 249 245 243 241 240 240 240 242 244 246 247 242 231 216 210 217 227 231 227 219 208 200 196 201 207 204 198 206 231 252 221 216 217 223 235 252 156 104 99 83 70 60 52 52 52 49 45 40
334 333 333 332 331 328 321 311 301 295 292 291 291 291 289 282 271 266 264 260 253 249 247 246 244 244 245 245 246 248 250 250 238 219 207 209 220 225 226 224 218 209 202 201 206 206 199 192 199 218 236 220 217 215 217 228 227 109 101 100 90 79 69 60 56 54 51 47 43
334 333 332 332 331 330 325 316 307 300 295 292 291 292 293 289 277 266 262 259 253 248 246 246 247 250 252 253 252 253 253 246 225 205 203 213 220 221 220 221 217 208 204 207 214 209 198 191 199 211 222 215 216 214 211 210 175 133 121 117 108 94 79 68 61 57 55 51 46
335 333 332 331 331 330 326 320 313 306 301 298 296 296 296 295 286 273 265 260 254 248 246 248 251 256 260 262 259 253 243 230 213 206 208 215 216 214 214 218 214 206 204 213 217 209 195 189 196 208 217 212 214 210 202 194 173 157 146 139 128 110 90 78 67 63 59 55 50
335 334 332 330 330 329 327 323 317 311 304 300 297 295 293 291 286 276 266 259 253 249 250 253 257 262 267 267 257 238 224 218 213 212 213 214 209 206 207 212 208 204 207 215 215 205 191 185 194 207 212 202 204 202 195 190 182 173 164 152 137 121 105 89 77 69 64 59 54
335 334 333 331 330 328 327 324 320 315 308 301 296 291 288 286 280 271 261 255 252 252 254 257 261 264 265 256 243 226 216 213 213 213 212 208 202 201 203 205 203 205 211 214 210 197 185 182 190 204 211 197 199 195 191 189 188 183 172 154 139 125 112 99 85 77 72 65 60
334 334 333 332 330 327 325 324 322 317 311 304 296 289 284 280 276 268 260 256 255 256 256 256 257 256 250 242 239 230 219 212 210 208 205 201 199 200 201 201 205 208 210 208 203 191 184 183 191 203 207 194 197 195 188 185 188 186 176 157 139 123 112 102 92 86 78 70 64
332 333 333 332 330 328 325 322 320 317 313 307 298 290 283 277 272 268 263 260 260 260 258 254 252 247 241 236 236 231 224 215 209 203 200 198 199 200 201 204 208 208 205 200 195 192 190 190 197 202 200 189 195 197 189 180 182 185 182 169 146 120 106 100 95 89 83 74 67
331 331 332 332 330 328 325 321 318 317 315 309 301 292 284 276 271 267 265 263 262 261 258 253 249 245 240 233 230 230 226 219 209 201 198 198 200 200 202 207 207 202 198 195 193 193 195 195 200 202 197 183 191 196 190 176 178 182 182 173 153 123 105 100 96 90 85 77 71
330 330 330 330 330 328 326 322 318 315 313 310 304 295 285 277 271 266 264 263 263 260 257 253 247 243 239 233 228 228 228 221 210 202 198 200 201 202 204 205 200 194 192 193 194 195 196 195 200 203 200 184 187 190 189 181 183 185 182 172 157 137 120 112 102 96 88 82 77
329 329 328 328 328 328 326 323 319 315 312 309 305 297 287 278 270 265 263 263 264 261 256 253 247 241 237 233 230 230 231 224 212 204 201 202 202 204 205 203 197 192 190 191 194 195 195 192 196 201 203 193 185 184 187 189 191 192 190 179 167 152 141 132 123 111 98 89 85
327 327 327 327 327 327 327 325 321 316 311 308 305 301 292 280 270 264 262 263 264 259 253 252 247 241 236 232 230 232 233 227 214 205 203 203 203 204 203 202 198 194 191 190 190 193 193 190 189 194 201 202 189 181 181 187 193 197 196 189 178 165 154 145 141 133 115 101 96
326 326 326 325 326 326 327 327 325 320 313 307 304 302 296 285 273 265 262 262 261 254 248 247 246 242 236 232 230 231 233 228 216 207 203 203 203 202 202 201 200 198 196 192 190 190 191 189 186 187 193 200 198 185 177 179 186 189 190 189 183 174 163 151 142 130 121 113 112
325 325 325 324 325 326 327 328 329 325 318 310 304 301 297 289 277 266 261 261 259 252 243 240 241 241 237 232 229 230 230 227 218 209 204 202 201 200 199 200 201 201 200 198 192 190 190 191 189 186 187 195 199 190 179 177 181 183 185 185 182 176 168 158 143 130 121 118 123
324 324 324 324 325 325 327 328 330 329 325 316 307 301 296 289 277 266 261 259 258 252 243 236 235 235 234 231 229 228 227 224 218 210 205 203 199 196 195 197 199 200 201 201 198 195 193 192 191 188 187 190 194 190 184 182 184 185 184 181 177 173 167 160 147 133 123 119 125
323 323 324 324 325 325 326 326 328 330 329 323 313 303 296 290 278 266 259 257 257 254 247 237 233 231 229 227 227 226 225 221 216 211 206 203 199 194 193 194 196 198 200 201 200 198 195 192 192 192 190 186 185 185 185 187 188 185 180 176 174 171 165 159 149 137 127 121 121
323 323 323 324 324 324 324 325 326 328 329 327 319 308 298 290 279 267 258 255 255 254 249 240 233 230 227 225 224 223 222 220 216 211 207 204 201 197 194 193 194 197 199 201 199 197 195 193 192 194 192 186 182 182 184 187 187 184 179 174 171 168 165 161 157 147 136 127 123
322 322 323 323 323 323 323 323 325 326 326 326 322 314 302 291 279 267 258 254 252 250 245 238 233 230 227 225 223 220 219 218 216 212 208 205 202 199 195 193 194 196 199 200 198 196 194 192 192 192 191 188 184 184 186 187 187 185 182 176 173 170 168 167 167 160 148 138 134
321 321 322 322 322 322 322 322 323 323 323 323 321 316 306 291 278 266 257 252 248 245 239 234 230 228 226 225 224 221 218 217 216 213 209 205 204 200 196 193 194 195 197 197 197 195 193 192 191 191 191 189 187 187 188 188 186 185 183 179 177 175 173 173 173 169 161 152 151
320 321 321 321 321 320 320 320 320 320 319 319 319 317 309 294 278 265 257 250 246 241 237 232 228 225 225 226 225 221 217 215 215 213 210 207 204 202 197 192 193 196 198 195 194 193 192 190 190 190 190 187 185 187 189 188 185 182 181 182 181 179 177 176 175 171 164 160 160
320 320 320 319 319 319 318 318 318 317 317 317 317 316 311 298 280 265 256 251 246 242 238 232 227 225 225 226 225 221 215 214 214 213 210 207 205 203 199 193 194 199 201 196 192 190 190 189 189 189 188 186 183 184 185 185 182 180 180 182 183 181 179 179 174 168 163 160 162
320 320 319 318 317 317 316 316 315 315 314 314 314 314 311 302 285 269 259 253 247 242 236 230 226 225 225 225 224 219 213 212 213 212 210 207 204 202 199 195 198 202 202 196 190 188 187 187 187 188 187 185 182 180 179 178 177 178 179 180 180 180 181 180 174 165 158 157 161
320 319 318 316 315 315 315 314 314 313 312 311 311 311 310 304 291 274 261 254 248 241 235 230 226 223 221 221 219 216 212 210 211 212 210 206 202 200 199 199 201 204 202 195 189 186 186 185 185 186 186 186 181 176 173 173 174 175 176 177 178 179 181 179 171 161 154 154 158
320 318 317 315 314 313 313 313 312 312 310 309 308 308 308 305 295 278 263 254 248 242 236 231 227 224 222 220 218 215 211 209 209 209 207 205 202 200 200 200 202 203 200 193 187 185 185 184 184 184 185 185 179 172 169 171 174 175 175 175 176 177 177 175 169 162 156 152 152
319 317 316 314 312 312 311 311 311 310 309 307 305 305 306 305 297 283 267 256 249 243 237 232 228 226 223 221 219 216 212 208 207 206 205 203 201 200 201 202 203 202 197 189 186 184 183 182 182 182 184 183 178 172 170 174 176 176 173 172 173 174 174 172 170 166 159 151 148
318 316 314 313 311 310 309 309 309 308 306 305 303 303 303 303 299 288 273 260 251 244 237 232 227 223 220 218 217 215 212 207 205 204 203 202 201 200 201 201 202 201 196 188 184 182 181 180 181 181 182 181 177 173 172 177 177 175 171 170 171 172 174 175 173 167 158 149 145
316 315 313 311 310 309 308 307 307 306 304 302 301 300 300 300 299 291 277 262 251 243 236 230 224 220 217 215 215 214 212 208 204 203 202 201 200 200 199 199 201 201 196 188 183 181 180 180 180 180 180 178 174 172 173 177 175 172 169 169 170 171 170 170 169 165 159 153 148
315 314 312 310 309 307 306 305 304 303 302 300 299 297 297 297 297 291 279 263 249 241 235 229 222 218 216 215 214 214 213 210 205 202 201 201 200 198 197 197 200 201 197 189 183 181 180 179 179 179 179 177 172 170 172 174 172 170 169 169 169 168 167 166 168 168 165 159 152
314 313 311 309 308 306 305 303 302 300 299 298 297 295 294 294 294 290 280 265 251 242 235 228 222 218 216 214 213 213 213 210 205 203 202 201 199 196 195 196 200 200 196 189 184 181 180 180 179 178 177 174 170 169 170 172 170 169 169 170 169 168 167 168 173 174 170 161 152
313 312 310 308 307 305 304 302 300 298 297 296 295 293 291 291 291 288 281 268 255 244 235 228 223 219 215 213 211 211 211 208 204 203 202 201 198 195 194 197 200 200 196 189 184 181 180 180 179 178 176 172 169 168 170 170 169 170 171 172 171 168 168 172 178 178 171 162 151
312 311 309 308 306 304 302 300 298 297 295 294 292 290 288 287 287 286 280 270 257 245 235 228 222 217 213 210 209 208 208 205 202 201 201 200 197 195 194 197 200 199 194 189 184 182 181 180 179 177 174 170 168 168 169 169 169 171 172 173 171 168 167 170 174 175 169 162 153
Height
761 760 760 759 759 758 758 758 757 757 756 756 756 756 756 756 756 756 756 756 756 756 756 756 757 757 757 758 758 758 758 758 758 758 759 759 759 758 758 758 758 758 758 758 757 757 757 757 757 757 757 757 757 756 756 756 756 756 756 756 756 756 756 756 756 756 756 756 756
761 760 760 759 759 758 758 758 757 757 756 756 756 755 755 755 755 755 755 756 756 756 756 756 756 756 757 757 757 758 758 758 758 758 758 758 758 758 758 758 758 758 757 757 757 757 757 757 757 756 756 756 756 756 756 756 756 756 756 756 756 756 756 756 756 756 756 756 755
760 760 759 759 759 758 758 758 757 757 757 756 756 755 755 755 755 755 755 755 755 755 755 756 756 756 756 756 757 757 757 758 758 758 758 758 758 758 758 757 757 757 757 757 756 756 756 757 757 756 756 756 756 756 756 756 756 756 756 756 756 756 756 756 756 756 756 756 755
760 760 759 759 758 758 758 758 757 757 757 756 756 755 755 754 754 754 754 754 755 755 755 755 755 755 755 756 756 756 757 757 757 758 758 758 758 757 757 757 757 757 756 756 756 756 756 756 756 756 756 756 756 756 756 756 756 756 756 756 756 756 756 756 756 756 756 755 755
760 760 759 759 758 758 758 758 757 757 756 756 755 755 754 754 754 754 754 754 754 754 754 755 755 755 755 755 755 756 756 756 757 757 757 757 757 757 757 757 756 756 756 756 756 756 756 756 756 756 756 756 756 756 756 756 756 756 756 756 756 756 756 756 756 756 756 756 755
760 760 759 758 758 758 757 757 757 756 756 755 755 754 754 754 754 753 753 753 754 754 754 754 754 754 754 754 755 755 755 755 756 756 756 756 756 756 756 756 756 756 755 755 755 755 755 756 756 756 756 756 756 756 756 756 756 755 755 756 756 756 756 756 756 756 756 756 755
761 760 759 758 758 757 757 756 756 756 755 755 755 754 754 753 753 753 753 753 753 753 753 754 754 754 754 754 754 754 754 754 755 755 755 755 755 755 756 755 755 755 755 755 755 755 755 755 755 755 756 756 756 756 756 756 755 755 755 756 756 756 756 756 756 756 756 756 755
761 760 759 758 757 757 756 756 755 755 755 754 754 754 753 753 753 753 753 753 753 753 753 753 753 753 753 753 753 753 753 753 753 754 754 754 755 755 755 755 755 755 754 754 754 755 755 755 755 755 756 756 756 756 756 755 755 755 755 756 756 756 756 756 756 756 756 756 755
760 759 758 758 757 756 756 756 755 754 754 754 753 753 753 753 753 753 753 753 753 753 753 753 753 753 753 753 753 752 752 752 753 753 753 753 754 754 754 754 754 754 754 754 754 754 754 755 755 755 755 755 755 755 755 755 755 755 755 756 756 756 756 756 756 756 756 756 755
760 759 758 757 757 756 756 755 755 754 754 753 753 753 753 753 753 752 752 752 752 752 752 752 752 752 752 752 752 751 751 751 751 751 752 753 753 753 753 753 753 753 753 753 754 754 754 754 754 755 755 755 755 755 755 755 755 755 755 756 756 756 756 756 756 756 756 756 756
760 759 758 757 756 756 755 755 754 754 753 753 753 752 752 752 752 752 752 752 752 752 751 751 751 751 751 751 751 750 750 750 750 750 751 752 752 752 752 752 753 753 753 753 753 753 754 754 754 754 755 755 755 755 755 755 755 755 755 756 756 756 756 756 756 756 756 756 756
760 759 758 757 756 755 755 754 753 753 753 752 752 752 752 751 751 751 752 752 751 751 751 750 750 750 750 750 749 749 749 749 749 749 750 751 751 751 751 752 752 752 752 752 753 753 753 753 754 754 754 755 755 755 755 755 755 755 755 756 756 756 756 756 756 756 756 756 756
760 759 758 757 756 755 754 753 753 752 752 752 751 751 751 751 751 751 751 751 751 750 750 749 749 749 749 748 748 748 748 748 748 748 749 750 750 750 751 751 751 752 752 752 752 752 753 753 753 754 754 754 754 755 755 755 755 755 756 756 756 756 756 756 756 756 756 756 756
759 758 758 757 756 755 754 753 753 752 751 751 751 751 751 750 750 750 750 750 750 749 749 748 748 748 748 748 747 747 747 747 748 748 748 749 749 749 750 750 751 751 751 751 752 752 752 753 753 753 754 754 754 754 755 755 755 755 755 756 756 756 756 756 756 756 756 756 756
759 758 757 756 755 754 754 753 752 752 751 751 750 750 750 750 750 750 750 750 749 749 748 748 748 747 747 747 746 746 747 747 747 748 748 748 748 749 749 750 750 750 751 751 751 751 752 752 753 753 753 754 754 754 754 755 755 755 755 755 756 756 756 756 756 756 756 756 756
759 758 757 756 755 754 753 753 752 751 751 750 750 750 750 750 749 749 749 749 749 748 748 748 747 747 746 746 746 746 746 746 747 747 747 748 748 748 749 749 750 750 750 750 751 751 751 752 752 753 753 753 754 754 754 754 755 755 755 755 756 756 756 756 756 756 756 756 756
759 758 757 756 755 754 753 752 752 751 750 750 750 749 749 749 749 749 748 748 748 748 748 747 747 747 746 746 746 746 746 746 746 746 747 747 748 748 748 749 749 749 750 750 750 751 751 751 752 752 753 753 753 754 754 754 754 755 755 755 756 756 756 756 756 756 756 756 756
758 758 757 756 755 753 753 752 751 751 750 749 749 749 748 748 748 748 748 748 748 747 747 747 746 746 746 746 746 745 745 745 746 746 746 746 747 747 748 748 748 749 749 749 750 750 751 751 751 752 752 753 753 754 754 754 754 755 755 755 756 756 756 756 756 756 756 756 756
758 757 756 755 754 753 752 751 751 750 749 749 748 748 748 748 748 747 747 747 747 747 746 746 746 746 745 745 745 745 745 745 745 745 745 746 746 747 747 747 748 748 748 749 749 750 750 750 751 751 752 753 753 753 753 753 754 754 755 755 756 756 756 756 756 756 756 756 756
758 757 756 755 754 753 752 751 750 749 749 748 748 747 747 747 747 746 746 746 746 746 746 745 745 745 745 745 745 745 745 744 744 745 745 745 745 746 746 747 747 748 748 748 749 749 750 750 750 751 751 752 753 753 753 753 754 755 755 755 756 756 756 756 756 757 757 757 756
758 757 756 754 753 752 752 751 750 749 748 747 747 746 746 746 746 745 745 745 745 745 745 745 745 744 744 744 744 744 744 744 744 744 744 744 745 745 745 746 746 747 747 748 748 749 749 750 750 751 751 752 752 753 753 753 754 755 755 755 756 756 756 756 756 756 757 757 757
758 757 755 754 753 752 751 750 749 748 747 747 746 745 745 745 745 744 744 744 744 744 744 744 744 744 744 744 744 744 744 743 743 743 744 744 744 744 745 745 745 746 747 747 748 748 749 749 750 750 751 751 752 752 753 753 754 754 755 755 755 756 756 756 756 756 757 757 757
757 756 755 754 753 752 751 750 749 748 747 746 745 745 744 744 744 743 743 743 743 743 743 743 743 743 743 743 743 743 743 743 743 743 743 743 743 744 744 744 745 745 746 746 747 748 748 749 749 750 751 751 752 752 752 753 753 754 754 755 755 755 756 756 756 756 756 757 757
757 756 755 753 752 751 750 749 748 747 746 745 745 744 743 743 743 743 742 742 742 742 743 743 743 743 743 743 743 743 743 743 743 743 743 743 743 743 744 744 744 745 745 746 747 747 748 748 749 750 751 751 752 752 752 753 753 753 754 754 755 755 756 756 756 756 756 757 757
757 755 754 753 752 751 750 749 748 747 746 745 744 743 743 742 742 742 742 741 741 741 742 742 742 742 742 742 742 742 742 742 742 742 742 743 743 743 743 743 744 744 745 746 746 747 747 748 748 749 750 751 751 751 752 752 753 753 754 754 755 755 756 756 756 756 756 757 757
756 755 754 753 752 751 749 748 748 747 746 745 743 743 742 742 741 741 741 740 740 740 740 741 741 741 742 742 742 742 742 742 742 742 742 742 742 742 743 743 743 744 744 745 746 746 747 748 748 748 749 750 750 751 752 752 753 753 754 754 754 755 756 756 756 756 756 757 757
756 755 753 753 751 750 749 748 747 746 745 744 743 742 742 741 741 740 740 740 739 739 740 740 740 740 741 741 741 741 741 741 741 741 741 741 742 742 742 742 743 743 744 744 745 746 746 747 748 748 749 749 750 750 751 752 753 753 753 754 754 755 755 756 756 756 756 757 757
756 755 753 752 751 750 749 748 747 746 745 743 743 742 741 740 740 740 739 739 739 739 739 739 739 739 740 740 740 740 740 740 740 741 741 741 741 741 741 742 742 743 743 743 744 745 746 746 747 748 748 749 749 750 751 752 752 753 753 754 754 755 755 756 756 756 756 757 757
755 754 753 752 751 750 748 748 746 745 744 743 742 741 740 740 739 739 739 738 738 738 738 738 738 738 739 739 739 739 739 740 740 740 740 740 740 741 741 741 742 742 743 743 744 744 745 746 747 748 748 749 749 750 750 751 752 752 753 753 754 754 755 755 756 756 756 757 757
755 754 753 752 750 749 748 747 746 745 743 743 741 740 740 739 738 738 738 738 738 738 738 738 738 738 738 738 738 738 738 739 739 739 739 740 740 740 740 741 741 742 742 742 743 743 744 745 746 747 748 748 749 749 750 751 751 752 753 753 754 754 755 755 756 756 756 757 757
754 753 752 751 750 749 748 747 745 744 743 742 741 740 739 738 738 737 737 737 737 737 737 737 737 737 737 737 737 738 738 738 738 738 739 739 739 739 740 740 740 741 741 742 742 743 743 744 745 746 747 748 748 749 750 750 751 752 753 753 754 754 755 755 755 756 756 757 757
753 753 751 750 749 748 747 746 745 743 742 741 740 739 738 737 737 736 736 736 736 736 736 736 736 736 736 736 736 737 737 737 738 738 738 738 738 739 739 739 740 740 740 741 742 742 743 744 745 746 747 747 748 748 749 750 751 752 752 753 753 754 754 755 755 755 756 756 757
753 752 751 750 748 747 746 745 744 743 741 740 739 738 737 736 736 735 735 735 735 735 735 735 735 735 735 736 736 736 736 737 737 737 737 738 738 738 738 739 739 739 740 740 741 742 742 743 744 745 746 747 748 748 749 750 750 751 752 753 753 754 754 755 755 755 756 756 757
752 751 750 749 748 746 745 744 743 742 741 739 738 737 736 736 735 734 734 734 734 734 734 734 734 734 735 735 735 735 735 736 736 736 737 737 737 738 738 738 739 739 739 740 740 741 742 743 743 744 745 746 747 748 749 749 750 751 752 752 753 754 754 755 755 755 756 756 756
751 750 749 748 747 745 744 743 742 741 740 738 737 736 735 735 734 733 733 733 733 733 733 733 733 734 734 734 734 734 735 735 735 736 736 736 737 737 738 738 738 738 739 739 740 740 741 742 743 744 745 746 747 748 748 749 750 751 751 752 753 753 754 754 755 755 756 756 756
751 749 748 747 745 744 743 742 741 740 738 738 736 735 734 734 733 733 732 732 732 732 732 732 733 733 733 733 733 733 734 734 735 735 735 736 736 736 737 737 738 738 738 739 739 740 741 742 743 743 744 745 746 747 748 749 750 750 751 752 753 753 754 754 754 755 755 756 756
750 748 747 746 744 743 742 741 740 739 738 736 735 734 733 733 732 732 731 731 731 731 731 731 731 732 732 732 733 733 733 733 734 734 734 735 735 736 736 737 737 737 738 738 739 739 740 741 742 743 743 744 746 747 748 748 749 750 751 752 752 753 753 754 754 754 755 755 756
749 748 746 745 743 742 741 740 739 738 736 735 734 733 733 732 731 730 730 730 730 730 730 730 730 730 731 731 732 732 732 733 733 733 734 734 734 735 735 736 736 737 737 738 738 739 740 741 741 742 743 744 745 746 747 748 749 750 751 752 752 753 753 753 754 754 754 755 755
748 747 745 744 742 741 740 738 737 736 735 734 733 732 731 731 730 729 729 729 728 728 728 728 728 729 730 730 731 731 732 732 732 733 733 733 733 734 735 735 735 736 736 737 738 738 739 740 741 742 742 743 745 746 747 748 748 749 750 751 752 753 753 753 754 754 754 754 755
747 745 744 743 741 740 738 737 736 735 734 733 732 731 730 729 728 728 728 728 727 727 727 727 728 728 728 729 730 730 731 731 732 732 732 733 733 733 734 734 735 735 736 737 737 738 739 740 740 741 742 743 744 745 746 747 748 749 750 751 751 752 753 753 753 753 754 754 754
745 744 743 741 740 738 737 736 734 733 733 732 730 730 729 728 727 727 726 726 726 726 726 726 726 727 728 728 729 729 730 730 731 731 732 732 733 733 733 734 734 734 735 736 737 738 738 739 740 741 742 743 744 745 746 747 748 749 749 750 751 752 752 753 753 753 754 754 754